Simultaneous Nadir Overpasses (SNOs) Predictions

Prediction of SNOs between METOP-B and NOAA-19 Satellite Orbit:

Table of predicted SNOs for the next 14.0 days since TLE Epoch: 9/22/2017
Index Date (METOP-B) Time (METOP-B) Lat,Lon (METOP-B) SZA (METOP-B ) Date (NOAA-19) Time (NOAA-19) Lat,Lon (NOAA-19) SZA (NOAA-19 ) Distance(km) Time Diff (sec)
1 09/30/2017 07:43:32 -77.82,-108.43 99.15 09/30/2017 07:42:23 -77.85,-110.89 99.21 57.78 69
2 09/30/2017 08:34:18 77.56, 57.66 80.57 09/30/2017 08:33:12 77.57, 57.81 80.58 3.70 66
3 09/30/2017 09:25:00 -77.56,-135.04 99.43 09/30/2017 09:24:18 -77.59,-135.06 99.40 3.87 42
4 09/30/2017 10:15:40 77.55, 32.24 80.58 09/30/2017 10:15:13 77.56, 32.40 80.59 3.84 27
5 09/30/2017 11:06:22 -77.54,-160.46 99.42 09/30/2017 11:06:19 -77.57,-160.47 99.39 3.67 3
6 09/30/2017 11:57:02 77.53, 6.83 80.59 09/30/2017 11:57:14 77.54, 6.99 80.60 3.99 12
7 09/30/2017 12:47:44 -77.52, 174.12 99.41 09/30/2017 12:48:20 -77.56, 174.12 99.37 3.47 36
8 09/30/2017 13:38:24 77.51, -18.59 80.60 09/30/2017 13:39:15 77.52, -18.42 80.61 4.13 51
9 09/30/2017 14:29:06 -77.51, 148.71 99.40 09/30/2017 14:30:21 -77.54, 148.71 99.36 3.28 75




NCC Satellite Simultaneous Nadir Overpasses (SNOs) Prediction Service
